Tracking 19706 objects as of 16-Jun-2019
HD Live streaming from Space Station
objects crossing your sky now

SL-14 DEB

Track SL-14 DEB now!
10-day predictions


NORAD ID: 39973
Int'l Code: 1987-068CZ
Perigee: 771.1 km
Apogee: 807.8 km
Inclination: 83.0 °
Period: 100.5 minutes
Semi major axis: 7160 km
RCS: 0.0059 m2 (small)
Launch date: August 18, 1987
Source: Commonwealth of Independent States (former USSR) (CIS)
Launch site: PLESETSK MISSILE AND SPACE COMPLEX (PKMTR)

Note: This is SATELLITE DEBRIS
aabbcc
Your satellite tracking list
Your tracking list is empty




NASA's NSSDC Master Catalog

Two Line Element Set (TLE):
1 39973U 87068CZ  19165.81342527 +.00000572 +00000-0 +20285-3 0  9998
2 39973 083.0351 195.1751 0025617 207.5231 152.4603 14.32819817262389
Source of the keplerian elements: AFSPC